Date String (YYYY-MM-DD hh:mm:ss) UTC,Instrument flags,absolute air pressure of the measurement (hPa),sample flow rate (lpm),inlet stack bypass flow (lpm),air temperature of the measurement (°C),ambient temperature measured by the external sensor (°C),aerosol sample conditioner tube jacket temperature (°C),OPC LED temperature (°C),internal box temperature (°C),relative humidity of the measurement (%),span deviation,mass concentration of particles derived from Lorenz-Mie calculation of OPC scattering (μg/m³),mass concentration of particles derived from Lorenz-Mie calculation of OPC scattering (μg/m³),mass concentration of particles derived from Lorenz-Mie calculation of OPC scattering (μg/m³)
DateTimeUTC,F1_M11,P_M11,Q1_M11,Q2_M11,T1_M11,T2_M11,T3_M11,T4_M11,T5_M11,U1_M11,ZSPAN_M11,X0_M11,X2_M11,X1_M11
2024-05-07 10:00:00,SystemResetWarning,0816.1,5.00,000.00,021.0,020.4,000.0,029.1,022.6,012.0,0000.0,0006.21,0002.22,0001.09
2024-05-07 10:01:00,SystemResetWarning,0816.1,4.99,000.00,021.0,020.4,000.0,029.1,022.6,012.0,0000.0,0006.63,0002.22,0001.08
2024-05-07 10:02:00,SystemResetWarning,0816.1,4.99,000.00,021.0,020.4,000.0,029.2,022.6,012.0,0000.0,0007.20,0002.25,0001.09
2024-05-07 10:03:00,SystemResetWarning,0816.1,4.99,000.00,021.0,020.4,000.0,029.2,022.6,012.1,0000.0,0006.60,0002.26,0001.10
2024-05-07 10:04:00,SystemResetWarning,0816.1,5.00,000.00,021.0,020.4,000.0,029.2,022.7,011.9,0000.0,0006.48,0002.24,0001.11
2024-05-07 10:05:00,SystemResetWarning,0816.1,5.01,000.00,021.0,020.4,000.0,029.2,022.7,011.9,0000.0,0006.50,0002.28,0001.12
2024-05-07 10:06:00,SystemResetWarning,0816.1,5.00,000.00,021.0,020.4,000.0,029.2,022.7,012.1,0000.0,0006.93,0002.29,0001.12
2024-05-07 10:07:00,SystemResetWarning,0816.1,4.98,000.00,021.0,020.4,000.0,029.2,022.6,012.1,0000.0,0007.15,0002.26,0001.13
2024-05-07 10:08:00,SystemResetWarning,0816.2,5.00,000.00,021.0,020.4,000.0,029.2,022.6,012.2,0000.0,0007.14,0002.28,0001.13
2024-05-07 10:09:00,SystemResetWarning,0816.2,5.01,000.00,021.0,020.4,000.0,029.2,022.7,012.1,0000.0,0007.20,0002.28,0001.12
2024-05-07 10:10:00,SystemResetWarning,0816.2,5.01,000.00,021.0,020.4,000.0,029.2,022.7,012.0,0000.0,0007.08,0002.23,0001.12
2024-05-07 10:11:00,SystemResetWarning,0816.3,4.98,000.00,021.1,020.4,000.0,029.2,022.7,012.1,0000.0,0006.73,0002.14,0001.13
2024-05-07 10:12:00,SystemResetWarning,0816.4,5.00,000.00,021.1,020.4,000.0,029.2,022.7,012.1,0000.0,0006.59,0002.15,0001.14
2024-05-07 10:13:00,SystemResetWarning,0816.4,5.00,000.00,021.1,020.4,000.0,029.2,022.7,012.1,0000.0,0005.63,0002.16,0001.14
2024-05-07 10:14:00,SystemResetWarning,0816.4,5.00,000.00,021.1,020.5,000.0,029.2,022.7,012.2,0000.0,0005.12,0002.13,0001.13
2024-05-07 10:15:00,SystemResetWarning,0816.4,5.00,000.00,021.1,020.5,000.0,029.2,022.7,012.1,0000.0,0005.09,0002.12,0001.12
2024-05-07 10:16:00,SystemResetWarning,0816.5,5.00,000.00,021.1,020.5,000.0,029.2,022.7,012.1,0000.0,0005.06,0002.11,0001.13
2024-05-07 10:17:00,SystemResetWarning,0816.5,5.00,000.00,021.1,020.5,000.0,029.2,022.7,012.2,0000.0,0004.59,0002.05,0001.12
2024-05-07 10:18:00,SystemResetWarning,0816.4,5.01,000.00,021.1,020.5,000.0,029.2,022.7,012.2,0000.0,0003.98,0001.99,0001.10
2024-05-07 10:19:00,SystemResetWarning,0816.3,5.00,000.00,021.1,020.5,000.0,029.2,022.7,012.2,0000.0,0003.97,0001.99,0001.12
2024-05-07 10:20:00,SystemResetWarning,0816.3,5.00,000.00,021.1,020.5,000.0,029.2,022.7,012.2,0000.0,0003.99,0002.00,0001.14
2024-05-07 10:21:00,SystemResetWarning,0816.4,5.00,000.00,021.1,020.5,000.0,029.2,022.7,012.2,0000.0,0004.36,0001.99,0001.15
2024-05-07 10:22:00,SystemResetWarning,0816.5,4.99,000.00,021.1,020.5,000.0,029.2,022.7,012.2,0000.0,0005.66,0001.99,0001.15
2024-05-07 10:23:00,SystemResetWarning,0816.3,5.00,000.00,021.1,020.5,000.0,029.2,022.7,012.1,0000.0,0005.76,0002.03,0001.15
2024-05-07 10:24:00,SystemResetWarning,0816.2,5.02,000.00,021.1,020.5,000.0,029.2,022.7,011.9,0000.0,0005.91,0002.04,0001.15
2024-05-07 10:25:00,SystemResetWarning,0816.1,5.01,000.00,021.1,020.5,000.0,029.2,022.7,011.9,0000.0,0005.89,0002.09,0001.18
2024-05-07 10:26:00,SystemResetWarning,0816.1,5.00,000.00,021.1,020.5,000.0,029.3,022.7,012.0,0000.0,0006.09,0002.20,0001.21
2024-05-07 10:27:00,SystemResetWarning,0816.1,4.99,000.00,021.1,020.5,000.0,029.3,022.7,011.9,0000.0,0006.28,0002.25,0001.21
2024-05-07 10:28:00,SystemResetWarning,0816.2,5.00,000.00,021.1,020.5,000.0,029.3,022.7,011.9,0000.0,0006.65,0002.29,0001.21
2024-05-07 10:29:00,SystemResetWarning,0816.1,5.00,000.00,021.1,020.5,000.0,029.3,022.8,012.0,0000.0,0007.08,0002.39,0001.22
2024-05-07 10:30:00,SystemResetWarning,0816.0,5.00,000.00,021.1,020.5,000.0,029.3,022.8,011.9,0000.0,0006.99,0002.37,0001.22
2024-05-07 10:31:00,SystemResetWarning,0816.0,5.01,000.00,021.1,020.5,000.0,029.3,022.8,011.9,0000.0,0006.78,0002.30,0001.21
2024-05-07 10:32:00,SystemResetWarning,0816.0,5.00,000.00,021.1,020.5,000.0,029.3,022.8,011.9,0000.0,0006.40,0002.32,0001.20
2024-05-07 10:33:00,SystemResetWarning,0816.1,4.99,000.00,021.1,020.4,000.0,029.3,022.8,011.9,0000.0,0005.36,0002.36,0001.20
2024-05-07 10:34:00,SystemResetWarning,0816.1,5.00,000.00,021.1,020.4,000.0,029.3,022.7,011.7,0000.0,0005.14,0002.31,0001.21
2024-05-07 10:35:00,SystemResetWarning,0816.1,5.00,000.00,021.1,020.4,000.0,029.3,022.7,011.7,0000.0,0005.11,0002.37,0001.22
2024-05-07 10:36:00,SystemResetWarning,0816.1,5.00,000.00,021.1,020.4,000.0,029.3,022.7,011.8,0000.0,0005.30,0002.43,0001.22
2024-05-07 10:37:00,SystemResetWarning,0816.1,5.00,000.00,021.0,020.4,000.0,029.2,022.7,011.9,0000.0,0005.28,0002.43,0001.22
2024-05-07 10:38:00,SystemResetWarning,0816.1,5.01,000.00,021.0,020.4,000.0,029.2,022.7,011.9,0000.0,0005.08,0002.39,0001.22
2024-05-07 10:39:00,SystemResetWarning,0816.1,5.00,000.00,021.0,020.4,000.0,029.2,022.7,011.8,0000.0,0004.83,0002.32,0001.23
2024-05-07 10:40:00,SystemResetWarning,0816.1,5.01,000.00,021.0,020.4,000.0,029.2,022.7,011.6,0000.0,0005.59,0002.27,0001.24
2024-05-07 10:41:00,SystemResetWarning,0816.1,5.00,000.00,021.0,020.4,000.0,029.2,022.6,011.8,0000.0,0006.22,0002.27,0001.23
2024-05-07 10:42:00,SystemResetWarning,0816.0,5.00,000.00,021.0,020.4,000.0,029.2,022.6,011.8,0000.0,0006.58,0002.34,0001.24
2024-05-07 10:43:00,SystemResetWarning,0815.9,5.00,000.00,021.0,020.4,000.0,029.2,022.6,011.6,0000.0,0006.64,0002.38,0001.26
2024-05-07 10:44:00,SystemResetWarning,0815.8,4.99,000.00,021.0,020.4,000.0,029.2,022.6,011.6,0000.0,0006.60,0002.38,0001.27
2024-05-07 10:45:00,SystemResetWarning,0815.8,4.99,000.00,021.0,020.4,000.0,029.2,022.7,011.9,0000.0,0006.74,0002.40,0001.29
2024-05-07 10:46:00,SystemResetWarning,0815.9,5.00,000.00,021.0,020.4,000.0,029.2,022.6,011.9,0000.0,0006.74,0002.35,0001.28
2024-05-07 10:47:00,SystemResetWarning,0816.1,5.00,000.00,021.0,020.4,000.0,029.2,022.7,012.0,0000.0,0006.52,0002.27,0001.28
2024-05-07 10:48:00,SystemResetWarning,0816.1,5.00,000.00,021.0,020.4,000.0,029.2,022.7,012.1,0000.0,0006.67,0002.21,0001.28
2024-05-07 10:49:00,SystemResetWarning,0816.0,5.00,000.00,021.0,020.4,000.0,029.2,022.7,012.1,0000.0,0007.42,0002.25,0001.28
2024-05-07 10:50:00,SystemResetWarning,0816.0,5.01,000.00,021.0,020.4,000.0,029.2,022.7,012.2,0000.0,0007.61,0002.34,0001.29
2024-05-07 10:51:00,SystemResetWarning,0815.8,4.99,000.00,021.0,020.4,000.0,029.2,022.7,011.7,0000.0,0006.85,0002.36,0001.28
2024-05-07 10:52:00,SystemResetWarning,0816.0,4.99,000.00,021.0,020.4,000.0,029.2,022.7,011.6,0000.0,0006.33,0002.43,0001.29
2024-05-07 10:53:00,SystemResetWarning,0816.1,5.00,000.00,021.0,020.4,000.0,029.2,022.7,011.8,0000.0,0006.22,0002.45,0001.30
2024-05-07 10:54:00,SystemResetWarning,0815.9,5.00,000.00,021.0,020.4,000.0,029.2,022.7,011.8,0000.0,0006.43,0002.46,0001.29
2024-05-07 10:55:00,SystemResetWarning,0816.0,5.00,000.00,021.0,020.4,000.0,029.2,022.7,011.7,0000.0,0006.28,0002.44,0001.29
2024-05-07 10:56:00,SystemResetWarning,0816.1,5.00,000.00,021.0,020.4,000.0,029.2,022.7,011.7,0000.0,0006.69,0002.56,0001.29
2024-05-07 10:57:00,SystemResetWarning,0816.0,5.00,000.00,021.0,020.4,000.0,029.2,022.7,011.7,0000.0,0006.84,0002.62,0001.30
2024-05-07 10:58:00,SystemResetWarning,0816.1,5.00,000.00,021.0,020.4,000.0,029.2,022.7,011.8,0000.0,0006.97,0002.64,0001.29
2024-05-07 10:59:00,SystemResetWarning,0816.1,4.99,000.00,021.0,020.4,000.0,029.2,022.6,011.7,0000.0,0006.92,0002.66,0001.30
